Regional Weather Roundup
Issued by NWS

Home | Current Version | Previous Version | Graphics & Text | Print | Product List | Glossary On
Versions: 1 2 3 4 5 6 7 8 9 10 11 12 13 14 15 16 17 18 19 20 21 22 23 24 25 26 27 28 29 30 31 32 33 34 35 36 37 38 39 40 41 42 43 44 45 46 47 48 49 50
000
ASUS45 KPSR 020210
RWRAZ

ARIZONA HOURLY REGIONAL WEATHER ROUNDUP
NATIONAL WEATHER SERVICE PHOENIX AZ
700 PM MST TUE SEP 01 2015

NOTE: FAIR INDICATES FEW OR NO CLOUDS BELOW 12,000 FEET WITH NO
SIGNIFICANT WEATHER AND/OR OBSTRUCTIONS TO VISIBILITY.

AZZ001>003-036-020300-
NORTHWEST ARIZONA

CITY           SKY/WX    TMP DP  RH WIND       PRES   REMARKS
BULLHEAD CITY  PTCLDY   100  52  19 S13       29.75S
KINGMAN        CLEAR     87  44  22 SW14      29.97S
$$

AZZ004>008-015-016-018-020300-
NORTH CENTRAL ARIZONA

CITY           SKY/WX    TMP DP  RH WIND       PRES   REMARKS
GRAND CANYON   MOCLDY    66  53  63 E6        30.23R
WILLIAMS       PTCLDY    72  48  43 S9G16     30.29R
PRESCOTT       PTCLDY    79  48  33 SW9       30.12R
FLAGSTAFF      MOCLDY    66  53  63 SW5       30.26F
PAYSON         MOCLDY    77  55  47 CALM      30.16R
PAGE           PTCLDY    84  48  28 S7        30.01R
$$

AZZ009>014-017-020300-
NORTHEAST ARIZONA

CITY           SKY/WX    TMP DP  RH WIND       PRES   REMARKS
WINSLOW        CLOUDY    76  58  53 SW10      30.11R
SAINT JOHNS    MOCLDY    74  47  38 S5        30.16R
WINDOW ROCK    MOCLDY    66  55  67 N5        30.24R
SHOW LOW       PTCLDY    64  55  72 S6        30.24S
$$

AZZ023-020300-
GREATER PHOENIX AREA

CITY           SKY/WX    TMP DP  RH WIND       PRES   REMARKS
PHOENIX        MOCLDY    97  59  28 E5        29.80S
BUCKEYE        MOCLDY    95  59  30 E7        29.80R
GLENDALE       MOCLDY    99  57  25 VRB5      29.82S
LUKE AFB       PTCLDY    97  60  29 NE3       29.80R
DEER VALLEY    MOCLDY    94  58  29 SE5       29.83S
SCOTTSDALE     MOCLDY    94  58  29 CALM      29.85S
MESA-FALCON    MOCLDY    93  57  29 VRB7      29.83S
MESA-GATEWAY   PTCLDY    93  61  33 NE5       29.85S
CHANDLER       MOCLDY    95  61  31 CALM      29.82S
$$

AZZ027-028-020300-
SOUTHWEST MARICOPA COUNTY AND PINAL COUNTY

CITY           SKY/WX    TMP DP  RH WIND       PRES   REMARKS
CASA GRANDE    CLEAR     93  61  33 CALM      29.84R
GILA BEND      MOCLDY   100  50  18 SW12      29.77R
$$

AZZ503-504-507>509-020300-
SOUTHEAST ARIZONA

CITY           SKY/WX    TMP DP  RH WIND       PRES   REMARKS
TUCSON         CLOUDY    84  67  56 CALM      29.97R
DAVIS-MONTHAN  PTCLDY    85  64  50 SW3       29.95R
RYAN FIELD     PTCLDY    88  68  51 E3        29.95R
NOGALES        MOCLDY    81  55  40 S5        30.06R
SIERRA VISTA   MOCLDY    80  50  35 SW13      30.12R
DOUGLAS        MOCLDY    79  54  41 SE10G25   30.08R
SAFFORD        CLOUDY    81  64  56 NW5       29.97F
$$

AZZ020-021-025-026-031-020300-
SOUTHWEST ARIZONA

CITY           SKY/WX    TMP DP  RH WIND       PRES   REMARKS
YUMA           MOCLDY    96  55  25 S10       29.75R
$$

CAZ031-033-041-043-047-048-061-020300-
SOUTHERN CALIFORNIA

CITY           SKY/WX    TMP DP  RH WIND       PRES   REMARKS
DOWNTOWN L.A.  MOCLDY    72  61  68 W5        29.89S
L.A. AIRPORT   MOCLDY    70  63  78 W10       29.90R
SAN DIEGO      CLOUDY    70  61  73 W6        29.93R
BURBANK        MOCLDY    72  61  68 S6        29.89R
ONTARIO        MOCLDY    75  60  59 W12       29.89R
RIVERSIDE      MOCLDY    76  60  57 W10       29.88R
PALM SPRINGS   MOCLDY    99  44  15 NW13G23   29.77R
EL CENTRO NAS  PTCLDY    98  57  25 SE12      29.73R
IMPERIAL       CLEAR    100  54  21 SE17      29.71R
BLYTHE         PTCLDY   100  57  23 SW14      29.73S
NEEDLES        PTCLDY   101  49  17 SW9       29.77R
$$

NVZ020-UTZ003-020300-
SOUTHERN NEVADA-UTAH

CITY           SKY/WX    TMP DP  RH WIND       PRES   REMARKS
LAS VEGAS      PTCLDY    95  49  20 SW10      29.78S
SALT LAKE CITY MOCLDY    86  39  19 S6        29.87F
$$

NMZ009-TXZ055-020300-
NEW MEXICO-WEST TEXAS

CITY           SKY/WX    TMP DP  RH WIND       PRES   REMARKS
ALBUQUERQUE    MOCLDY    80  45  28 S10       30.13S
EL PASO        MOCLDY    90  41  18 SW7       29.99R
$$


........................KEY........................
SKY/WX - SKY CONDITION/WEATHER
TMP    - TEMPERATURE IN FAHRENHEIT
DP     - DEW POINT IN FAHRENHEIT
RH     - RELATIVE HUMIDITY IN PERCENT
WIND   - DIRECTION AND SPEED IN MILES PER HOUR (MPH)
VRB    - VARIABLE WIND DIRECTION
PRES   - MEAN SEA LEVEL PRESSURE IN INCHES OF MERCURY
         F - FALLING PRESSURE   R - RISING PRESSURE
         S - STEADY PRESSURE
VSB    - VISIBILITY IN MILES
HX     - HEAT INDEX IN FAHRENHEIT
WCI    - WIND CHILL INDEX IN FAHRENHEIT
TC     - TEMPERATURE IN CELSIUS WHICH IS ALSO KNOWN AS
         TEMPERATURE IN CENTIGRADE
AFB    - AIR FORCE BASE
         LUKE AFB IS LUKE AIR FORCE BASE
         DAVIS-MONTHAN IS DAVIS-MONTHAN AIR FORCE BASE
NAS    - NAVAL AIR STATION
         EL CENTRO NAS IS EL CENTRO NAVAL AIR STATION
N/A    - NOT AVAILABLE




USA.gov is the U.S. government's official web portal to all federal, state and local government web resources and services.